Tracking 35048 objects as of 19-Aug-2026
HD Live streaming from Space Station
objects crossing your sky now

DMSP 5D-2 F11 DEB


DMSP 5D-2 F11 DEB is no longer on orbit


NORAD ID: 29088
Int'l Code: 1991-082CH
Launch date: November 28, 1991
Source: United States (US)
Launch site: AIR FORCE WESTERN TEST RANGE (AFWTR)
Decay date: 2025-09-24

Note: This is SATELLITE DEBRIS
Your satellite tracking list
Your tracking list is empty




NASA's NSSDC Master Catalog

Two Line Element Set (TLE):
1 29088U 91082CH  25262.57946494  .01511482  00000-0  13072-1 0  9998
2 29088  98.5012  27.1543 0019746 295.8312  64.0907 15.66200320644592
Source of the keplerian elements: AFSPC